Weather in Bandar Seri Begawan

Brunei     4°55′46″N   114°55′06″E
temp.,
°C
wind,
m/s
gust,
m/s
humid.,
%
clouds,
%
prec.,
mm/h
press.,
hPa
HPBL,
m
26 july, mon
mon2623:00+27sw1185100 4.3 101173
02:00+27s2287100 5.5 100995
05:00+26sse2289100 0.1 1008160
08:00+27ssw228770 0.1 1010149
11:00+31sw126340 0.1 1009844
14:00+31wnw566569 0.1 1007889
17:00+30wnw677387 0.0 1006626
20:00+28wsw237740 0.4 1008352
27 july, tue
tue2723:00+27s228399 0.0 1010155
02:00+26s238859 0.0 1008156
05:00+25ssw238948 0.0 1008154
08:00+27ssw238279 0.0 1010228
11:00+31wsw2461100 0.0 1009916
14:00+31wnw556377 0.1 1007934
17:00+30w677223 0.1 1006627
20:00+27w468392 1.5 1008296
28 july, wed
wed2823:00+26ssw2388100 1.1 1009181
02:00+26ssw348982 1.1 1008171
05:00+25ssw3489100 0.0 1008171
08:00+26s348697 0.0 1009197
11:00+30ssw136431 0.0 1009703
14:00+31nw556696 0.0 1006918
17:00+30wnw56725 0.1 1006562
20:00+28w2382100 0.9 1008269
29 july, thu
thu2923:00+27sw1284100 1.6 1009103
02:00+26ssw2387100 2.9 1008127
05:00+26s338884 0.3 1008159
08:00+26sse2385100 0.5 1009201
11:00+30e1267100 0.0 1009572
14:00+31nnw336496 0.0 1006822
17:00+30nw457173 0.0 1006507
20:00+28w467965 0.0 1008393
30 july, fri
fri3023:00+27w248786 3.8 1010217
02:00+26ssw2288100 5.3 1008159
05:00+26ssw2390100 0.2 1009153
08:00+26s3390100 1.5 1010206
11:00+30wsw2368100 0.0 1010828
14:00+29wnw457599 1.1 1008761
17:00+29w3473100 1.1 1007785
20:00+27sw2381100 2.9 1010203